GFSMA_prec_precacc24_180.txt.gz
Total_Precipitation_Accumulation
0.00 0.00 0.00 0.00 0.00 0.00 0.00 0.00 0.00 0.00 0.00 0.00 0.00 0.00 0.00 0.00 0.00 0.00 0.00 0.00 0.00 0.01 0.00 0.01 0.02 0.05 0.06 0.06 0.07 0.10 0.14 0.16 0.16 0.15 0.17 0.19 0.31 0.36 0.34 0.29 0.29 0.25 0.24
0.00 0.00 0.00 0.00 0.00 0.00 0.00 0.00 0.00 0.00 0.00 0.00 0.00 0.00 0.00 0.00 0.00 0.00 0.00 0.00 0.00 0.00 0.01 0.01 0.02 0.04 0.11 0.12 0.12 0.12 0.11 0.16 0.18 0.14 0.17 0.24 0.30 0.40 0.33 0.26 0.24 0.21 0.22
0.00 0.00 0.00 0.00 0.00 0.00 0.00 0.00 0.00 0.00 0.00 0.00 0.00 0.00 0.00 0.00 0.00 0.00 0.00 0.00 0.00 0.00 0.00 0.02 0.02 0.02 0.09 0.14 0.15 0.22 0.14 0.15 0.18 0.21 0.21 0.24 0.30 0.29 0.30 0.30 0.27 0.22 0.19
0.00 0.00 0.00 0.00 0.00 0.00 0.00 0.00 0.00 0.00 0.00 0.00 0.00 0.00 0.00 0.00 0.00 0.00 0.00 0.00 0.00 0.00 0.00 0.00 0.00 0.00 0.03 0.11 0.14 0.20 0.24 0.21 0.23 0.26 0.33 0.40 0.36 0.35 0.34 0.29 0.29 0.22 0.21
0.00 0.00 0.00 0.00 0.00 0.00 0.00 0.00 0.00 0.00 0.00 0.00 0.00 0.00 0.00 0.00 0.00 0.00 0.00 0.00 0.00 0.00 0.00 0.00 0.00 0.00 0.01 0.04 0.10 0.13 0.20 0.21 0.22 0.32 0.44 0.55 0.52 0.53 0.55 0.39 0.33 0.29 0.27
0.00 0.00 0.00 0.00 0.00 0.00 0.00 0.00 0.00 0.00 0.00 0.00 0.00 0.00 0.00 0.00 0.00 0.00 0.00 0.00 0.00 0.00 0.00 0.00 0.00 0.00 0.01 0.01 0.04 0.10 0.14 0.21 0.24 0.31 0.41 0.56 0.72 0.77 0.80 0.79 0.64 0.50 0.43
0.00 0.00 0.00 0.00 0.00 0.00 0.00 0.00 0.00 0.00 0.00 0.00 0.00 0.00 0.00 0.00 0.00 0.00 0.00 0.00 0.00 0.00 0.00 0.00 0.00 0.01 0.03 0.04 0.03 0.08 0.13 0.17 0.23 0.27 0.42 0.56 0.63 0.79 0.95 1.04 0.93 1.08 0.85
0.00 0.00 0.00 0.00 0.00 0.00 0.00 0.00 0.00 0.00 0.00 0.00 0.00 0.00 0.00 0.00 0.00 0.00 0.00 0.00 0.00 0.00 0.00 0.00 0.01 0.02 0.02 0.02 0.04 0.06 0.09 0.15 0.22 0.28 0.50 0.75 0.58 0.68 0.90 1.14 1.39 1.35 1.49
0.00 0.00 0.00 0.00 0.00 0.00 0.00 0.00 0.00 0.00 0.00 0.00 0.00 0.02 0.02 0.01 0.00 0.00 0.00 0.00 0.00 0.00 0.01 0.03 0.03 0.04 0.03 0.06 0.12 0.09 0.05 0.05 0.12 0.22 0.38 0.70 0.88 0.70 0.67 0.81 1.12 1.24 1.27
0.00 0.00 0.00 0.00 0.00 0.00 0.00 0.00 0.00 0.00 0.00 0.01 0.01 0.01 0.02 0.04 0.05 0.02 0.00 0.00 0.00 0.01 0.05 0.10 0.15 0.09 0.08 0.11 0.10 0.10 0.05 0.05 0.09 0.16 0.21 0.28 0.38 0.55 0.74 0.75 0.62 0.85 1.07
0.00 0.00 0.00 0.00 0.00 0.00 0.00 0.00 0.00 0.00 0.00 0.01 0.01 0.01 0.01 0.01 0.02 0.05 0.01 0.00 0.03 0.05 0.10 0.18 0.31 0.12 0.05 0.04 0.06 0.10 0.07 0.04 0.06 0.10 0.16 0.18 0.19 0.27 0.36 0.81 1.31 0.98 0.77
0.00 0.00 0.00 0.00 0.00 0.00 0.00 0.00 0.00 0.00 0.00 0.00 0.01 0.01 0.02 0.05 0.04 0.06 0.06 0.01 0.05 0.11 0.13 0.39 0.35 0.24 0.16 0.07 0.11 0.13 0.12 0.10 0.11 0.12 0.12 0.15 0.20 0.23 0.30 0.42 0.76 1.47 1.62
0.00 0.00 0.00 0.00 0.00 0.00 0.00 0.00 0.00 0.00 0.00 0.00 0.01 0.01 0.01 0.02 0.04 0.05 0.08 0.04 0.03 0.06 0.16 0.41 0.44 0.32 0.25 0.20 0.15 0.15 0.15 0.16 0.22 0.25 0.29 0.27 0.23 0.24 0.31 0.36 0.53 0.91 1.37
0.00 0.00 0.00 0.00 0.00 0.00 0.00 0.00 0.00 0.00 0.00 0.00 0.01 0.01 0.01 0.01 0.02 0.04 0.08 0.10 0.06 0.04 0.24 0.39 0.35 0.34 0.31 0.28 0.28 0.23 0.14 0.19 0.17 0.20 0.24 0.31 0.36 0.34 0.36 0.43 0.40 0.60 1.04
0.00 0.00 0.00 0.00 0.00 0.00 0.00 0.00 0.00 0.00 0.00 0.00 0.00 0.01 0.01 0.01 0.02 0.03 0.03 0.07 0.16 0.12 0.23 0.52 0.34 0.29 0.18 0.25 0.32 0.26 0.26 0.20 0.22 0.25 0.26 0.35 0.37 0.37 0.41 0.34 0.31 0.34 0.56
0.00 0.00 0.00 0.00 0.00 0.00 0.00 0.00 0.00 0.00 0.00 0.00 0.00 0.01 0.01 0.01 0.02 0.02 0.03 0.05 0.11 0.17 0.21 0.39 0.31 0.18 0.16 0.14 0.21 0.26 0.58 0.60 0.41 0.39 0.36 0.41 0.32 0.31 0.29 0.33 0.36 0.46 0.47
0.00 0.00 0.00 0.00 0.00 0.00 0.00 0.00 0.00 0.00 0.00 0.00 0.00 0.00 0.01 0.01 0.02 0.02 0.02 0.05 0.09 0.16 0.22 0.28 0.18 0.12 0.12 0.21 0.18 0.15 0.25 0.34 0.50 0.56 0.37 0.21 0.19 0.27 0.26 0.25 0.28 0.41 0.68
0.00 0.00 0.00 0.00 0.00 0.00 0.00 0.00 0.00 0.00 0.00 0.00 0.00 0.00 0.01 0.01 0.01 0.02 0.03 0.06 0.14 0.21 0.25 0.19 0.12 0.13 0.17 0.23 0.31 0.21 0.16 0.23 0.33 0.42 0.52 0.38 0.21 0.15 0.18 0.24 0.26 0.21 0.31
0.00 0.00 0.00 0.00 0.00 0.00 0.00 0.00 0.00 0.00 0.00 0.00 0.00 0.00 0.01 0.01 0.01 0.02 0.04 0.09 0.09 0.10 0.18 0.21 0.21 0.16 0.15 0.18 0.22 0.25 0.17 0.13 0.14 0.26 0.28 0.40 0.51 0.40 0.29 0.25 0.20 0.17 0.16
0.00 0.00 0.00 0.00 0.00 0.00 0.00 0.00 0.00 0.00 0.00 0.00 0.00 0.00 0.00 0.01 0.02 0.02 0.04 0.08 0.11 0.11 0.15 0.17 0.19 0.16 0.14 0.17 0.16 0.17 0.16 0.14 0.10 0.05 0.07 0.11 0.13 0.18 0.26 0.37 0.40 0.35 0.28
0.02 0.01 0.01 0.00 0.00 0.00 0.00 0.00 0.00 0.00 0.00 0.00 0.00 0.00 0.00 0.00 0.00 0.01 0.01 0.04 0.09 0.12 0.15 0.16 0.20 0.22 0.18 0.19 0.23 0.21 0.20 0.21 0.13 0.10 0.03 0.01 0.00 0.01 0.02 0.07 0.23 0.36 0.41
0.02 0.01 0.01 0.00 0.00 0.00 0.00 0.00 0.00 0.00 0.00 0.00 0.00 0.00 0.00 0.00 0.00 0.00 0.00 0.00 0.01 0.05 0.09 0.12 0.17 0.25 0.29 0.23 0.27 0.24 0.21 0.24 0.20 0.13 0.15 0.09 0.02 0.00 0.00 0.01 0.04 0.09 0.16
0.02 0.01 0.01 0.01 0.00 0.00 0.00 0.00 0.00 0.00 0.00 0.00 0.00 0.00 0.00 0.00 0.00 0.00 0.00 0.00 0.00 0.00 0.00 0.01 0.02 0.06 0.11 0.15 0.15 0.10 0.10 0.10 0.09 0.05 0.09 0.11 0.07 0.01 0.00 0.01 0.02 0.03 0.04
0.06 0.04 0.02 0.02 0.01 0.00 0.00 0.00 0.00 0.00 0.00 0.00 0.00 0.00 0.00 0.00 0.00 0.00 0.00 0.00 0.00 0.00 0.00 0.00 0.00 0.00 0.00 0.00 0.01 0.01 0.01 0.01 0.00 0.00 0.00 0.02 0.04 0.02 0.00 0.00 0.01 0.01 0.03
0.14 0.12 0.07 0.03 0.02 0.00 0.00 0.00 0.00 0.00 0.00 0.00 0.00 0.00 0.00 0.00 0.00 0.00 0.00 0.00 0.00 0.00 0.00 0.00 0.00 0.00 0.00 0.00 0.00 0.00 0.00 0.00 0.00 0.00 0.00 0.01 0.03 0.05 0.01 0.00 0.00 0.00 0.01
0.17 0.20 0.16 0.09 0.03 0.00 0.00 0.00 0.00 0.00 0.00 0.00 0.00 0.00 0.00 0.00 0.00 0.00 0.00 0.00 0.00 0.00 0.00 0.00 0.00 0.00 0.00 0.00 0.00 0.00 0.00 0.00 0.00 0.00 0.00 0.01 0.01 0.05 0.09 0.02 0.00 0.00 0.00

GFSMA_prec_precacc24_183.txt.gz
Total_Precipitation_Accumulation
0.00 0.00 0.00 0.00 0.00 0.00 0.00 0.00 0.00 0.00 0.00 0.00 0.00 0.00 0.00 0.00 0.00 0.00 0.00 0.00 0.00 0.00 0.00 0.00 0.00 0.01 0.04 0.05 0.07 0.10 0.13 0.14 0.14 0.12 0.12 0.10 0.15 0.22 0.27 0.29 0.29 0.25 0.24
0.00 0.00 0.00 0.00 0.00 0.00 0.00 0.00 0.00 0.00 0.00 0.00 0.00 0.00 0.00 0.00 0.00 0.00 0.00 0.00 0.00 0.00 0.00 0.00 0.00 0.01 0.05 0.07 0.07 0.10 0.10 0.15 0.18 0.14 0.15 0.17 0.17 0.24 0.23 0.22 0.24 0.21 0.22
0.00 0.00 0.00 0.00 0.00 0.00 0.00 0.00 0.00 0.00 0.00 0.00 0.00 0.00 0.00 0.00 0.00 0.00 0.00 0.00 0.00 0.00 0.00 0.00 0.00 0.00 0.02 0.06 0.08 0.12 0.12 0.14 0.19 0.22 0.20 0.19 0.19 0.17 0.19 0.23 0.25 0.22 0.19
0.00 0.00 0.00 0.00 0.00 0.00 0.00 0.00 0.00 0.00 0.00 0.00 0.00 0.00 0.00 0.00 0.00 0.00 0.00 0.00 0.00 0.00 0.00 0.00 0.00 0.00 0.01 0.03 0.08 0.15 0.17 0.19 0.23 0.26 0.31 0.35 0.26 0.17 0.16 0.17 0.24 0.22 0.21
0.00 0.00 0.00 0.00 0.00 0.00 0.00 0.00 0.00 0.00 0.00 0.00 0.00 0.00 0.00 0.00 0.00 0.00 0.00 0.00 0.00 0.00 0.00 0.00 0.00 0.00 0.01 0.02 0.05 0.12 0.17 0.19 0.22 0.31 0.43 0.51 0.43 0.35 0.33 0.21 0.23 0.27 0.28
0.00 0.00 0.00 0.00 0.00 0.00 0.00 0.00 0.00 0.00 0.00 0.00 0.00 0.00 0.00 0.00 0.00 0.00 0.00 0.00 0.00 0.00 0.00 0.00 0.00 0.00 0.00 0.01 0.03 0.09 0.14 0.21 0.25 0.31 0.41 0.53 0.64 0.63 0.60 0.55 0.47 0.44 0.43
0.00 0.00 0.00 0.00 0.00 0.00 0.00 0.00 0.00 0.00 0.00 0.00 0.00 0.00 0.00 0.00 0.00 0.00 0.00 0.00 0.00 0.00 0.00 0.00 0.00 0.00 0.01 0.01 0.02 0.07 0.13 0.17 0.21 0.25 0.38 0.48 0.55 0.72 0.82 0.82 0.72 0.90 0.83
0.00 0.00 0.00 0.00 0.00 0.00 0.00 0.00 0.00 0.00 0.00 0.00 0.00 0.00 0.00 0.00 0.00 0.00 0.00 0.00 0.00 0.00 0.00 0.00 0.01 0.01 0.01 0.01 0.03 0.05 0.08 0.12 0.18 0.21 0.34 0.47 0.47 0.62 0.84 1.06 1.23 1.19 1.42
0.00 0.00 0.00 0.00 0.00 0.00 0.00 0.00 0.00 0.00 0.00 0.00 0.00 0.01 0.01 0.00 0.00 0.00 0.00 0.00 0.00 0.00 0.00 0.02 0.03 0.04 0.02 0.02 0.07 0.06 0.04 0.05 0.11 0.18 0.28 0.46 0.44 0.52 0.60 0.76 1.04 1.11 1.14
0.00 0.00 0.00 0.00 0.00 0.00 0.00 0.00 0.00 0.00 0.00 0.00 0.00 0.00 0.01 0.02 0.03 0.01 0.00 0.00 0.00 0.01 0.03 0.09 0.13 0.07 0.05 0.05 0.06 0.07 0.06 0.05 0.09 0.16 0.19 0.23 0.31 0.40 0.62 0.66 0.54 0.74 0.91
0.00 0.00 0.00 0.00 0.00 0.00 0.00 0.00 0.00 0.00 0.00 0.00 0.00 0.00 0.01 0.00 0.01 0.03 0.01 0.00 0.01 0.03 0.04 0.16 0.28 0.10 0.03 0.03 0.05 0.09 0.06 0.04 0.05 0.11 0.17 0.19 0.20 0.26 0.31 0.77 1.23 0.88 0.64
0.00 0.00 0.00 0.00 0.00 0.00 0.00 0.00 0.00 0.00 0.00 0.00 0.00 0.00 0.01 0.02 0.02 0.04 0.04 0.01 0.01 0.06 0.07 0.29 0.29 0.21 0.14 0.06 0.10 0.13 0.11 0.10 0.09 0.10 0.12 0.15 0.20 0.24 0.30 0.38 0.67 1.34 1.45
0.00 0.00 0.00 0.00 0.00 0.00 0.00 0.00 0.00 0.00 0.00 0.00 0.00 0.00 0.01 0.01 0.02 0.03 0.06 0.03 0.02 0.03 0.10 0.29 0.34 0.25 0.22 0.18 0.13 0.15 0.14 0.16 0.21 0.24 0.28 0.26 0.22 0.24 0.31 0.34 0.47 0.76 1.13
0.02 0.01 0.01 0.00 0.00 0.00 0.00 0.00 0.00 0.00 0.00 0.00 0.00 0.01 0.01 0.01 0.01 0.02 0.06 0.07 0.04 0.02 0.13 0.29 0.23 0.24 0.27 0.26 0.24 0.21 0.12 0.18 0.16 0.19 0.23 0.29 0.35 0.33 0.36 0.42 0.34 0.43 0.79
0.03 0.03 0.01 0.01 0.00 0.00 0.00 0.00 0.00 0.00 0.00 0.00 0.00 0.00 0.00 0.01 0.01 0.02 0.02 0.05 0.10 0.09 0.16 0.37 0.23 0.15 0.10 0.21 0.27 0.24 0.24 0.18 0.20 0.24 0.25 0.32 0.34 0.34 0.39 0.34 0.30 0.29 0.37
0.20 0.12 0.06 0.02 0.00 0.00 0.00 0.00 0.00 0.00 0.00 0.00 0.00 0.00 0.00 0.00 0.01 0.01 0.01 0.02 0.05 0.13 0.16 0.29 0.25 0.12 0.07 0.09 0.15 0.20 0.55 0.58 0.38 0.37 0.35 0.41 0.31 0.29 0.28 0.31 0.36 0.45 0.38
0.30 0.17 0.09 0.05 0.00 0.00 0.00 0.00 0.00 0.00 0.00 0.00 0.00 0.00 0.00 0.00 0.01 0.01 0.01 0.01 0.03 0.09 0.17 0.25 0.17 0.10 0.08 0.08 0.09 0.09 0.17 0.27 0.48 0.54 0.36 0.21 0.20 0.27 0.26 0.23 0.28 0.41 0.68
0.15 0.07 0.03 0.02 0.01 0.00 0.00 0.00 0.00 0.00 0.00 0.00 0.00 0.00 0.00 0.00 0.00 0.01 0.01 0.01 0.05 0.12 0.20 0.17 0.11 0.12 0.14 0.16 0.20 0.16 0.13 0.16 0.27 0.38 0.50 0.38 0.21 0.16 0.19 0.25 0.26 0.20 0.31
0.21 0.11 0.04 0.01 0.00 0.00 0.00 0.00 0.00 0.00 0.00 0.00 0.00 0.00 0.00 0.00 0.01 0.01 0.01 0.02 0.03 0.05 0.09 0.12 0.15 0.14 0.12 0.15 0.17 0.20 0.15 0.11 0.12 0.24 0.27 0.39 0.50 0.40 0.30 0.26 0.20 0.17 0.16
0.22 0.08 0.02 0.00 0.00 0.00 0.00 0.00 0.00 0.00 0.00 0.00 0.00 0.00 0.00 0.00 0.01 0.00 0.01 0.02 0.04 0.06 0.07 0.07 0.09 0.11 0.10 0.14 0.14 0.16 0.15 0.14 0.09 0.05 0.07 0.10 0.13 0.18 0.26 0.37 0.41 0.35 0.28
0.07 0.03 0.01 0.00 0.00 0.00 0.00 0.00 0.00 0.00 0.00 0.00 0.00 0.00 0.00 0.00 0.00 0.00 0.00 0.00 0.01 0.03 0.04 0.05 0.08 0.10 0.09 0.12 0.16 0.16 0.18 0.20 0.13 0.09 0.03 0.00 0.00 0.01 0.02 0.08 0.23 0.36 0.41
0.04 0.02 0.01 0.00 0.00 0.00 0.00 0.00 0.00 0.00 0.00 0.00 0.00 0.00 0.00 0.00 0.00 0.00 0.00 0.00 0.00 0.00 0.01 0.03 0.08 0.13 0.16 0.15 0.20 0.19 0.16 0.19 0.16 0.11 0.13 0.08 0.01 0.00 0.00 0.02 0.06 0.10 0.16
0.04 0.01 0.01 0.02 0.00 0.00 0.00 0.00 0.00 0.00 0.00 0.00 0.00 0.00 0.00 0.00 0.00 0.00 0.00 0.00 0.00 0.00 0.00 0.00 0.01 0.03 0.08 0.11 0.14 0.09 0.09 0.08 0.07 0.05 0.08 0.09 0.06 0.01 0.00 0.01 0.03 0.04 0.04
0.06 0.04 0.02 0.03 0.03 0.01 0.01 0.00 0.00 0.00 0.00 0.00 0.00 0.00 0.00 0.00 0.00 0.00 0.00 0.00 0.00 0.00 0.00 0.00 0.00 0.00 0.00 0.00 0.01 0.01 0.01 0.01 0.00 0.00 0.00 0.02 0.04 0.02 0.00 0.00 0.01 0.02 0.04
0.14 0.12 0.07 0.04 0.04 0.03 0.01 0.00 0.00 0.00 0.00 0.00 0.00 0.00 0.00 0.00 0.00 0.00 0.00 0.00 0.00 0.00 0.00 0.00 0.00 0.00 0.00 0.00 0.00 0.00 0.00 0.00 0.00 0.00 0.00 0.01 0.03 0.06 0.01 0.00 0.00 0.00 0.01
0.17 0.20 0.18 0.10 0.06 0.04 0.02 0.00 0.00 0.00 0.00 0.00 0.00 0.00 0.00 0.00 0.00 0.00 0.00 0.00 0.00 0.00 0.00 0.00 0.00 0.00 0.00 0.00 0.00 0.00 0.00 0.00 0.00 0.00 0.00 0.01 0.01 0.05 0.09 0.02 0.00 0.00 0.00

GFSMA_prec_precacc24_189.txt.gz
Total_Precipitation_Accumulation
0.00 0.00 0.00 0.00 0.00 0.00 0.00 0.00 0.00 0.00 0.00 0.00 0.00 0.00 0.00 0.00 0.00 0.00 0.00 0.00 0.00 0.00 0.00 0.00 0.00 0.00 0.00 0.00 0.01 0.04 0.09 0.11 0.10 0.09 0.10 0.10 0.15 0.21 0.25 0.26 0.29 0.25 0.24
0.00 0.00 0.00 0.00 0.00 0.00 0.00 0.00 0.00 0.00 0.00 0.00 0.00 0.00 0.00 0.00 0.00 0.00 0.00 0.00 0.00 0.00 0.00 0.00 0.00 0.01 0.01 0.01 0.01 0.03 0.05 0.10 0.14 0.11 0.12 0.14 0.15 0.20 0.19 0.21 0.23 0.21 0.22
0.01 0.00 0.00 0.00 0.00 0.00 0.00 0.00 0.00 0.00 0.00 0.00 0.00 0.00 0.00 0.00 0.00 0.00 0.00 0.00 0.00 0.00 0.00 0.00 0.01 0.01 0.01 0.01 0.01 0.03 0.04 0.06 0.11 0.15 0.13 0.15 0.14 0.16 0.19 0.20 0.22 0.22 0.19
0.01 0.00 0.00 0.00 0.00 0.00 0.00 0.00 0.00 0.00 0.00 0.00 0.00 0.00 0.00 0.00 0.00 0.00 0.00 0.00 0.00 0.00 0.00 0.00 0.00 0.01 0.01 0.03 0.04 0.05 0.07 0.08 0.09 0.14 0.18 0.20 0.17 0.15 0.16 0.16 0.18 0.20 0.21
0.00 0.00 0.00 0.00 0.00 0.00 0.00 0.00 0.00 0.00 0.00 0.00 0.00 0.00 0.00 0.00 0.00 0.00 0.00 0.00 0.00 0.00 0.00 0.00 0.00 0.00 0.01 0.02 0.04 0.08 0.10 0.10 0.10 0.11 0.18 0.27 0.25 0.19 0.20 0.14 0.15 0.17 0.22
0.00 0.00 0.00 0.00 0.00 0.00 0.00 0.00 0.00 0.00 0.00 0.00 0.00 0.00 0.00 0.00 0.00 0.00 0.00 0.00 0.00 0.00 0.00 0.00 0.00 0.00 0.00 0.01 0.03 0.08 0.11 0.11 0.11 0.11 0.13 0.27 0.35 0.33 0.30 0.30 0.27 0.28 0.29
0.02 0.00 0.00 0.00 0.00 0.00 0.00 0.00 0.00 0.00 0.00 0.00 0.00 0.00 0.00 0.00 0.00 0.00 0.00 0.00 0.00 0.00 0.00 0.00 0.00 0.00 0.01 0.01 0.02 0.05 0.08 0.08 0.10 0.10 0.10 0.17 0.31 0.40 0.51 0.49 0.41 0.43 0.42
0.04 0.02 0.00 0.00 0.00 0.00 0.00 0.00 0.00 0.00 0.00 0.00 0.00 0.00 0.00 0.00 0.00 0.00 0.00 0.00 0.00 0.00 0.00 0.00 0.00 0.01 0.01 0.00 0.01 0.03 0.04 0.05 0.08 0.10 0.10 0.12 0.17 0.30 0.50 0.78 1.01 0.96 0.67
0.04 0.04 0.03 0.02 0.02 0.00 0.00 0.00 0.00 0.00 0.00 0.00 0.00 0.00 0.00 0.00 0.00 0.00 0.00 0.00 0.00 0.00 0.00 0.01 0.02 0.02 0.00 0.01 0.02 0.02 0.03 0.03 0.05 0.11 0.14 0.13 0.15 0.22 0.31 0.55 0.87 0.99 0.92
0.05 0.05 0.04 0.03 0.03 0.01 0.00 0.00 0.00 0.00 0.00 0.00 0.00 0.00 0.00 0.00 0.00 0.00 0.00 0.00 0.00 0.00 0.00 0.02 0.06 0.03 0.01 0.01 0.04 0.06 0.05 0.05 0.07 0.10 0.11 0.14 0.16 0.21 0.36 0.50 0.45 0.66 0.81
0.06 0.06 0.04 0.02 0.02 0.01 0.00 0.00 0.00 0.00 0.00 0.00 0.00 0.00 0.00 0.00 0.00 0.01 0.00 0.00 0.00 0.00 0.00 0.06 0.09 0.04 0.01 0.01 0.03 0.06 0.05 0.03 0.04 0.08 0.12 0.12 0.13 0.17 0.21 0.57 0.96 0.74 0.56
0.07 0.06 0.05 0.03 0.02 0.01 0.00 0.01 0.00 0.00 0.00 0.00 0.00 0.00 0.00 0.00 0.01 0.01 0.01 0.00 0.00 0.00 0.00 0.10 0.07 0.04 0.02 0.02 0.05 0.05 0.04 0.04 0.06 0.07 0.09 0.13 0.15 0.16 0.20 0.24 0.47 1.11 1.22
0.07 0.07 0.08 0.05 0.04 0.02 0.01 0.01 0.01 0.01 0.01 0.01 0.01 0.00 0.00 0.00 0.00 0.01 0.02 0.01 0.00 0.00 0.01 0.07 0.07 0.06 0.04 0.02 0.05 0.06 0.06 0.07 0.10 0.14 0.18 0.18 0.18 0.20 0.27 0.30 0.36 0.57 0.82
0.10 0.10 0.09 0.07 0.04 0.01 0.01 0.01 0.01 0.01 0.01 0.01 0.01 0.01 0.01 0.00 0.00 0.01 0.02 0.03 0.01 0.00 0.00 0.04 0.08 0.08 0.04 0.03 0.06 0.07 0.07 0.07 0.05 0.09 0.13 0.19 0.26 0.28 0.32 0.39 0.32 0.31 0.40
0.09 0.10 0.10 0.11 0.09 0.07 0.05 0.04 0.03 0.01 0.00 0.01 0.02 0.02 0.01 0.01 0.00 0.00 0.00 0.02 0.05 0.03 0.01 0.04 0.04 0.06 0.02 0.02 0.06 0.03 0.03 0.07 0.07 0.11 0.15 0.24 0.25 0.26 0.32 0.29 0.27 0.25 0.31
0.34 0.30 0.20 0.12 0.07 0.04 0.03 0.02 0.02 0.01 0.00 0.00 0.00 0.00 0.00 0.00 0.00 0.00 0.00 0.00 0.02 0.04 0.03 0.05 0.05 0.05 0.02 0.02 0.06 0.05 0.07 0.27 0.27 0.29 0.26 0.30 0.23 0.20 0.18 0.22 0.27 0.37 0.31
0.48 0.44 0.41 0.35 0.27 0.15 0.07 0.04 0.02 0.02 0.01 0.01 0.00 0.00 0.00 0.00 0.00 0.00 0.00 0.00 0.01 0.02 0.04 0.08 0.05 0.03 0.04 0.04 0.03 0.04 0.05 0.10 0.33 0.41 0.30 0.17 0.14 0.19 0.18 0.15 0.19 0.31 0.59
0.46 0.49 0.49 0.47 0.42 0.34 0.22 0.15 0.11 0.08 0.05 0.04 0.02 0.02 0.01 0.00 0.00 0.00 0.00 0.00 0.01 0.02 0.04 0.05 0.02 0.04 0.05 0.07 0.05 0.04 0.07 0.04 0.03 0.20 0.39 0.29 0.17 0.12 0.14 0.19 0.20 0.14 0.23
0.50 0.44 0.45 0.46 0.44 0.47 0.46 0.39 0.26 0.17 0.13 0.09 0.05 0.03 0.01 0.01 0.01 0.00 0.00 0.00 0.00 0.01 0.02 0.01 0.03 0.03 0.03 0.03 0.05 0.05 0.05 0.05 0.01 0.01 0.05 0.23 0.39 0.29 0.22 0.19 0.16 0.13 0.12
0.46 0.39 0.35 0.30 0.27 0.27 0.23 0.21 0.22 0.19 0.10 0.04 0.03 0.03 0.03 0.02 0.02 0.00 0.00 0.00 0.00 0.00 0.00 0.01 0.01 0.01 0.01 0.01 0.02 0.05 0.06 0.06 0.04 0.00 0.00 0.01 0.05 0.09 0.14 0.25 0.33 0.31 0.25
0.22 0.17 0.16 0.19 0.18 0.14 0.11 0.07 0.04 0.02 0.01 0.00 0.00 0.01 0.00 0.00 0.00 0.00 0.00 0.00 0.00 0.00 0.00 0.00 0.00 0.00 0.00 0.01 0.02 0.02 0.06 0.09 0.04 0.04 0.01 0.00 0.00 0.00 0.01 0.06 0.20 0.31 0.40
0.16 0.12 0.11 0.11 0.09 0.07 0.06 0.04 0.01 0.01 0.00 0.00 0.00 0.00 0.00 0.00 0.00 0.00 0.00 0.00 0.00 0.00 0.00 0.00 0.00 0.00 0.01 0.01 0.02 0.01 0.01 0.03 0.02 0.02 0.05 0.03 0.00 0.00 0.00 0.02 0.06 0.10 0.15
0.31 0.25 0.20 0.20 0.19 0.14 0.07 0.02 0.00 0.00 0.00 0.00 0.00 0.00 0.00 0.00 0.00 0.00 0.00 0.00 0.00 0.00 0.00 0.00 0.00 0.00 0.00 0.00 0.01 0.01 0.00 0.01 0.00 0.00 0.02 0.03 0.01 0.00 0.00 0.01 0.03 0.04 0.05
0.61 0.47 0.39 0.33 0.23 0.18 0.09 0.02 0.01 0.00 0.00 0.00 0.00 0.00 0.00 0.00 0.00 0.00 0.00 0.00 0.00 0.00 0.00 0.00 0.00 0.00 0.00 0.00 0.00 0.00 0.00 0.00 0.00 0.00 0.00 0.02 0.03 0.01 0.00 0.00 0.01 0.02 0.04
0.49 0.44 0.35 0.29 0.24 0.20 0.09 0.04 0.01 0.00 0.00 0.01 0.00 0.00 0.00 0.00 0.00 0.00 0.00 0.00 0.00 0.00 0.00 0.00 0.00 0.00 0.00 0.00 0.00 0.00 0.00 0.00 0.00 0.00 0.00 0.01 0.04 0.05 0.01 0.00 0.00 0.00 0.01
0.43 0.40 0.35 0.25 0.20 0.14 0.08 0.02 0.01 0.00 0.00 0.00 0.00 0.00 0.00 0.00 0.00 0.00 0.00 0.00 0.00 0.00 0.00 0.00 0.00 0.00 0.00 0.00 0.00 0.00 0.00 0.00 0.00 0.00 0.00 0.01 0.01 0.05 0.09 0.03 0.00 0.01 0.00

GFSMA_prec_precacc24_192.txt.gz
Total_Precipitation_Accumulation
0.00 0.00 0.00 0.00 0.00 0.00 0.00 0.00 0.00 0.00 0.00 0.00 0.00 0.00 0.00 0.00 0.00 0.00 0.00 0.00 0.00 0.00 0.00 0.01 0.01 0.01 0.01 0.01 0.00 0.01 0.01 0.03 0.04 0.06 0.07 0.08 0.10 0.14 0.17 0.23 0.29 0.25 0.24
0.00 0.00 0.00 0.00 0.00 0.00 0.00 0.00 0.00 0.00 0.00 0.00 0.00 0.00 0.00 0.00 0.00 0.00 0.00 0.00 0.00 0.00 0.00 0.01 0.01 0.01 0.01 0.01 0.01 0.02 0.02 0.03 0.04 0.05 0.07 0.08 0.07 0.12 0.14 0.15 0.21 0.21 0.22
0.01 0.00 0.00 0.00 0.00 0.00 0.00 0.00 0.00 0.00 0.00 0.00 0.00 0.00 0.00 0.00 0.00 0.00 0.00 0.00 0.00 0.00 0.00 0.01 0.01 0.01 0.02 0.02 0.02 0.03 0.04 0.04 0.04 0.05 0.05 0.08 0.09 0.09 0.15 0.16 0.18 0.21 0.20
0.01 0.00 0.00 0.00 0.00 0.00 0.00 0.00 0.00 0.00 0.00 0.00 0.00 0.00 0.00 0.00 0.00 0.00 0.00 0.00 0.00 0.00 0.00 0.00 0.01 0.01 0.02 0.03 0.04 0.06 0.08 0.08 0.07 0.07 0.06 0.09 0.11 0.09 0.10 0.14 0.16 0.18 0.21
0.02 0.01 0.00 0.00 0.00 0.00 0.00 0.00 0.00 0.00 0.00 0.00 0.00 0.00 0.00 0.00 0.00 0.00 0.00 0.00 0.00 0.00 0.00 0.00 0.00 0.00 0.01 0.03 0.05 0.08 0.11 0.11 0.10 0.09 0.07 0.06 0.09 0.14 0.14 0.12 0.14 0.15 0.21
0.02 0.01 0.01 0.00 0.00 0.00 0.00 0.00 0.00 0.00 0.00 0.00 0.00 0.00 0.00 0.00 0.00 0.00 0.00 0.00 0.00 0.00 0.00 0.00 0.00 0.00 0.00 0.01 0.03 0.08 0.12 0.13 0.11 0.11 0.10 0.09 0.07 0.14 0.19 0.20 0.19 0.24 0.29
0.04 0.02 0.01 0.00 0.00 0.00 0.00 0.00 0.00 0.00 0.00 0.00 0.00 0.00 0.00 0.00 0.00 0.00 0.00 0.00 0.00 0.00 0.00 0.00 0.00 0.00 0.01 0.01 0.02 0.05 0.08 0.09 0.11 0.11 0.10 0.09 0.08 0.08 0.20 0.33 0.29 0.32 0.34
0.05 0.05 0.03 0.01 0.01 0.01 0.00 0.00 0.00 0.00 0.00 0.00 0.00 0.00 0.00 0.00 0.00 0.00 0.00 0.00 0.00 0.00 0.00 0.00 0.00 0.01 0.00 0.00 0.01 0.03 0.04 0.05 0.08 0.10 0.11 0.10 0.09 0.09 0.13 0.39 0.75 0.80 0.58
0.05 0.07 0.07 0.04 0.06 0.04 0.00 0.00 0.00 0.00 0.00 0.00 0.00 0.00 0.00 0.00 0.00 0.00 0.00 0.00 0.00 0.00 0.00 0.01 0.01 0.01 0.00 0.00 0.01 0.02 0.03 0.03 0.05 0.10 0.13 0.13 0.13 0.14 0.15 0.17 0.42 0.72 0.74
0.06 0.07 0.08 0.05 0.06 0.06 0.02 0.01 0.01 0.01 0.00 0.00 0.00 0.00 0.00 0.00 0.00 0.00 0.00 0.00 0.00 0.00 0.00 0.02 0.03 0.01 0.01 0.00 0.01 0.03 0.04 0.04 0.04 0.07 0.09 0.11 0.14 0.16 0.16 0.18 0.19 0.41 0.63
0.07 0.07 0.06 0.04 0.05 0.04 0.03 0.03 0.03 0.01 0.01 0.01 0.01 0.00 0.00 0.00 0.00 0.00 0.00 0.00 0.00 0.00 0.00 0.04 0.04 0.02 0.00 0.00 0.01 0.03 0.03 0.03 0.03 0.05 0.08 0.10 0.11 0.12 0.13 0.18 0.19 0.18 0.21
0.07 0.06 0.07 0.07 0.06 0.04 0.03 0.03 0.03 0.01 0.00 0.01 0.00 0.00 0.00 0.00 0.00 0.00 0.01 0.00 0.00 0.00 0.00 0.04 0.02 0.03 0.01 0.00 0.03 0.03 0.03 0.02 0.03 0.05 0.08 0.11 0.13 0.13 0.15 0.17 0.21 0.24 0.23
0.08 0.09 0.10 0.10 0.11 0.06 0.05 0.04 0.04 0.03 0.02 0.03 0.01 0.00 0.00 0.00 0.00 0.00 0.00 0.00 0.01 0.00 0.01 0.03 0.02 0.02 0.03 0.01 0.02 0.02 0.03 0.02 0.03 0.07 0.13 0.14 0.15 0.17 0.21 0.24 0.25 0.25 0.34
0.11 0.11 0.13 0.11 0.09 0.07 0.05 0.06 0.05 0.03 0.01 0.02 0.02 0.01 0.01 0.00 0.00 0.00 0.01 0.02 0.03 0.02 0.01 0.02 0.02 0.01 0.03 0.02 0.02 0.01 0.02 0.03 0.02 0.04 0.07 0.12 0.18 0.22 0.27 0.35 0.26 0.21 0.21
0.10 0.11 0.13 0.16 0.13 0.12 0.10 0.08 0.07 0.05 0.02 0.01 0.02 0.02 0.02 0.01 0.01 0.01 0.01 0.01 0.03 0.02 0.01 0.02 0.01 0.01 0.01 0.01 0.03 0.02 0.01 0.02 0.03 0.05 0.10 0.19 0.19 0.17 0.25 0.25 0.22 0.19 0.23
0.37 0.33 0.26 0.19 0.14 0.12 0.12 0.11 0.08 0.06 0.07 0.07 0.07 0.06 0.04 0.02 0.01 0.01 0.01 0.00 0.01 0.02 0.02 0.02 0.03 0.01 0.01 0.01 0.03 0.04 0.01 0.01 0.05 0.21 0.21 0.26 0.19 0.17 0.14 0.18 0.22 0.31 0.26
0.57 0.52 0.50 0.45 0.34 0.24 0.20 0.15 0.12 0.07 0.04 0.02 0.01 0.01 0.01 0.00 0.00 0.00 0.00 0.00 0.00 0.01 0.01 0.04 0.02 0.01 0.01 0.00 0.01 0.03 0.03 0.00 0.03 0.17 0.22 0.12 0.08 0.14 0.16 0.12 0.15 0.27 0.55
0.68 0.61 0.60 0.56 0.50 0.45 0.37 0.26 0.20 0.16 0.10 0.07 0.05 0.03 0.02 0.02 0.01 0.01 0.01 0.01 0.01 0.02 0.02 0.03 0.01 0.01 0.01 0.02 0.01 0.01 0.01 0.01 0.00 0.02 0.07 0.11 0.10 0.08 0.09 0.15 0.16 0.10 0.19
1.14 0.90 0.61 0.55 0.52 0.59 0.63 0.56 0.40 0.29 0.23 0.19 0.17 0.15 0.13 0.09 0.06 0.03 0.02 0.02 0.03 0.03 0.01 0.01 0.01 0.01 0.01 0.01 0.01 0.01 0.00 0.01 0.00 0.00 0.00 0.03 0.16 0.19 0.16 0.13 0.09 0.08 0.08
0.82 0.79 0.62 0.47 0.41 0.40 0.37 0.38 0.42 0.43 0.36 0.28 0.22 0.18 0.12 0.08 0.05 0.02 0.02 0.02 0.02 0.01 0.00 0.00 0.00 0.00 0.00 0.00 0.01 0.02 0.02 0.01 0.01 0.00 0.00 0.00 0.00 0.05 0.09 0.15 0.23 0.19 0.14
0.35 0.36 0.39 0.35 0.30 0.21 0.17 0.16 0.19 0.26 0.29 0.31 0.26 0.15 0.06 0.02 0.01 0.00 0.00 0.00 0.00 0.00 0.00 0.00 0.00 0.00 0.00 0.00 0.01 0.01 0.02 0.03 0.01 0.01 0.00 0.00 0.00 0.00 0.01 0.03 0.08 0.18 0.21
0.31 0.23 0.21 0.18 0.15 0.11 0.12 0.13 0.15 0.21 0.29 0.29 0.18 0.08 0.02 0.01 0.01 0.00 0.00 0.00 0.00 0.00 0.00 0.00 0.00 0.00 0.00 0.00 0.00 0.00 0.00 0.01 0.01 0.00 0.02 0.01 0.00 0.00 0.00 0.02 0.05 0.06 0.10
0.48 0.38 0.29 0.29 0.31 0.27 0.25 0.19 0.17 0.18 0.19 0.16 0.09 0.03 0.00 0.00 0.00 0.00 0.00 0.00 0.00 0.00 0.00 0.00 0.00 0.00 0.00 0.00 0.00 0.00 0.00 0.00 0.00 0.00 0.00 0.02 0.00 0.00 0.00 0.01 0.03 0.04 0.04
0.83 0.73 0.60 0.53 0.44 0.39 0.38 0.31 0.25 0.18 0.13 0.07 0.03 0.01 0.01 0.01 0.00 0.00 0.00 0.00 0.00 0.00 0.00 0.00 0.00 0.00 0.00 0.00 0.00 0.00 0.00 0.00 0.00 0.00 0.00 0.02 0.03 0.00 0.00 0.00 0.01 0.02 0.04
0.79 0.81 0.76 0.65 0.61 0.59 0.38 0.24 0.20 0.17 0.09 0.04 0.04 0.03 0.02 0.01 0.01 0.00 0.00 0.00 0.00 0.00 0.00 0.00 0.00 0.00 0.00 0.00 0.00 0.00 0.00 0.00 0.00 0.00 0.00 0.01 0.03 0.04 0.01 0.00 0.00 0.00 0.01
0.73 0.67 0.66 0.58 0.49 0.46 0.35 0.23 0.19 0.11 0.06 0.04 0.02 0.01 0.01 0.00 0.00 0.00 0.00 0.00 0.00 0.00 0.00 0.00 0.00 0.00 0.00 0.00 0.00 0.00 0.00 0.00 0.00 0.00 0.00 0.01 0.01 0.04 0.06 0.02 0.00 0.00 0.00

GFSMA_prec_precacc24_198.txt.gz
Total_Precipitation_Accumulation
0.00 0.00 0.01 0.01 0.00 0.00 0.00 0.00 0.00 0.00 0.00 0.00 0.00 0.00 0.00 0.00 0.00 0.00 0.00 0.00 0.01 0.01 0.02 0.02 0.03 0.02 0.02 0.02 0.02 0.01 0.01 0.01 0.01 0.01 0.01 0.00 0.00 0.00 0.00 0.02 0.06 0.12 0.20
0.01 0.00 0.01 0.01 0.00 0.00 0.00 0.00 0.00 0.00 0.00 0.00 0.00 0.00 0.00 0.00 0.00 0.00 0.00 0.00 0.01 0.01 0.02 0.02 0.03 0.03 0.03 0.03 0.02 0.03 0.02 0.02 0.03 0.02 0.02 0.01 0.01 0.00 0.01 0.01 0.03 0.06 0.10
0.01 0.00 0.00 0.00 0.00 0.00 0.00 0.00 0.00 0.00 0.00 0.00 0.00 0.00 0.00 0.00 0.00 0.00 0.00 0.00 0.00 0.01 0.02 0.02 0.03 0.03 0.04 0.03 0.03 0.04 0.04 0.04 0.04 0.04 0.03 0.03 0.02 0.02 0.02 0.02 0.01 0.03 0.06
0.01 0.01 0.00 0.00 0.00 0.00 0.00 0.00 0.00 0.00 0.00 0.00 0.00 0.00 0.00 0.00 0.00 0.00 0.00 0.00 0.00 0.00 0.00 0.01 0.02 0.02 0.03 0.05 0.06 0.07 0.08 0.07 0.06 0.06 0.05 0.04 0.04 0.03 0.02 0.02 0.02 0.02 0.03
0.03 0.01 0.01 0.00 0.00 0.00 0.00 0.00 0.00 0.00 0.00 0.00 0.00 0.00 0.00 0.00 0.00 0.00 0.00 0.00 0.00 0.00 0.00 0.00 0.00 0.00 0.02 0.04 0.06 0.09 0.10 0.10 0.09 0.08 0.06 0.05 0.04 0.03 0.03 0.03 0.03 0.03 0.03
0.06 0.04 0.03 0.01 0.01 0.01 0.00 0.00 0.01 0.01 0.00 0.00 0.00 0.00 0.00 0.00 0.00 0.00 0.00 0.00 0.00 0.00 0.00 0.00 0.00 0.00 0.00 0.01 0.03 0.07 0.10 0.10 0.09 0.09 0.09 0.08 0.07 0.06 0.05 0.04 0.04 0.04 0.05
0.16 0.09 0.07 0.03 0.02 0.02 0.01 0.01 0.01 0.01 0.00 0.00 0.00 0.00 0.00 0.00 0.00 0.00 0.00 0.00 0.00 0.00 0.00 0.00 0.00 0.00 0.00 0.00 0.02 0.04 0.06 0.07 0.09 0.09 0.09 0.09 0.08 0.07 0.06 0.06 0.06 0.07 0.07
0.21 0.16 0.14 0.09 0.09 0.06 0.04 0.03 0.02 0.02 0.00 0.00 0.00 0.00 0.00 0.00 0.00 0.00 0.00 0.00 0.00 0.00 0.00 0.00 0.00 0.00 0.00 0.00 0.00 0.02 0.03 0.04 0.06 0.08 0.09 0.09 0.09 0.09 0.09 0.09 0.09 0.09 0.09
0.21 0.26 0.26 0.19 0.16 0.12 0.05 0.03 0.02 0.01 0.01 0.01 0.00 0.01 0.01 0.00 0.00 0.00 0.00 0.00 0.00 0.00 0.00 0.01 0.00 0.00 0.00 0.00 0.00 0.00 0.01 0.02 0.04 0.08 0.09 0.09 0.09 0.10 0.11 0.12 0.12 0.11 0.10
0.13 0.15 0.20 0.18 0.19 0.17 0.10 0.08 0.07 0.03 0.02 0.02 0.01 0.01 0.00 0.00 0.00 0.00 0.00 0.00 0.00 0.00 0.00 0.01 0.00 0.00 0.00 0.00 0.00 0.01 0.02 0.02 0.02 0.04 0.06 0.07 0.09 0.09 0.09 0.12 0.12 0.11 0.10
0.12 0.15 0.17 0.20 0.29 0.29 0.22 0.19 0.13 0.09 0.05 0.03 0.03 0.03 0.01 0.00 0.00 0.00 0.00 0.00 0.00 0.00 0.00 0.01 0.00 0.00 0.00 0.00 0.00 0.00 0.01 0.01 0.01 0.03 0.05 0.06 0.08 0.09 0.09 0.09 0.10 0.12 0.12
0.10 0.11 0.14 0.17 0.23 0.25 0.25 0.29 0.29 0.25 0.18 0.10 0.05 0.02 0.02 0.01 0.00 0.00 0.00 0.00 0.00 0.00 0.00 0.00 0.00 0.00 0.01 0.00 0.01 0.01 0.01 0.01 0.01 0.02 0.03 0.06 0.08 0.08 0.10 0.13 0.13 0.14 0.15
0.10 0.11 0.16 0.18 0.24 0.22 0.20 0.21 0.26 0.26 0.29 0.26 0.16 0.07 0.04 0.02 0.01 0.00 0.00 0.00 0.01 0.01 0.02 0.02 0.00 0.00 0.01 0.01 0.01 0.01 0.00 0.01 0.01 0.02 0.03 0.05 0.07 0.08 0.14 0.20 0.20 0.16 0.16
0.12 0.12 0.15 0.15 0.18 0.20 0.22 0.28 0.27 0.25 0.24 0.25 0.24 0.16 0.09 0.06 0.04 0.01 0.01 0.01 0.03 0.03 0.03 0.02 0.00 0.00 0.01 0.00 0.01 0.00 0.00 0.00 0.00 0.01 0.03 0.05 0.08 0.09 0.15 0.24 0.16 0.13 0.11
0.11 0.12 0.15 0.21 0.22 0.25 0.27 0.30 0.30 0.24 0.24 0.22 0.25 0.26 0.19 0.11 0.06 0.04 0.02 0.01 0.01 0.05 0.06 0.03 0.01 0.01 0.02 0.01 0.00 0.00 0.00 0.00 0.00 0.01 0.03 0.10 0.11 0.08 0.16 0.16 0.12 0.09 0.14
0.38 0.34 0.29 0.25 0.24 0.27 0.31 0.31 0.31 0.27 0.30 0.31 0.27 0.27 0.24 0.17 0.10 0.11 0.06 0.03 0.03 0.05 0.08 0.07 0.06 0.05 0.08 0.07 0.04 0.02 0.01 0.01 0.01 0.00 0.01 0.07 0.08 0.08 0.06 0.08 0.10 0.16 0.13
0.57 0.54 0.56 0.55 0.47 0.37 0.37 0.36 0.38 0.40 0.33 0.27 0.25 0.21 0.20 0.19 0.14 0.09 0.07 0.02 0.01 0.02 0.04 0.07 0.08 0.06 0.10 0.10 0.05 0.01 0.02 0.02 0.01 0.00 0.00 0.01 0.02 0.03 0.04 0.03 0.06 0.12 0.33
0.72 0.70 0.73 0.75 0.73 0.69 0.62 0.52 0.55 0.55 0.45 0.40 0.32 0.21 0.19 0.21 0.22 0.13 0.11 0.08 0.05 0.06 0.06 0.13 0.13 0.11 0.12 0.09 0.05 0.02 0.02 0.01 0.00 0.00 0.00 0.00 0.01 0.02 0.03 0.03 0.05 0.03 0.11
1.24 1.09 0.93 0.94 0.93 1.01 1.05 1.03 0.94 0.86 0.69 0.56 0.50 0.46 0.40 0.32 0.33 0.35 0.25 0.21 0.19 0.16 0.14 0.19 0.19 0.14 0.14 0.09 0.04 0.01 0.00 0.00 0.00 0.00 0.00 0.00 0.00 0.01 0.02 0.02 0.02 0.01 0.01
0.92 1.02 1.02 0.94 0.91 1.00 0.98 1.09 1.15 1.12 1.05 0.85 0.71 0.55 0.51 0.48 0.42 0.32 0.33 0.25 0.20 0.12 0.10 0.11 0.10 0.09 0.07 0.05 0.02 0.01 0.01 0.00 0.00 0.00 0.00 0.00 0.00 0.00 0.01 0.02 0.02 0.01 0.02
0.44 0.49 0.63 0.73 0.74 0.76 0.70 0.72 0.78 0.89 0.91 0.95 0.82 0.68 0.60 0.55 0.53 0.44 0.35 0.31 0.28 0.24 0.21 0.17 0.11 0.07 0.03 0.04 0.03 0.01 0.01 0.00 0.00 0.00 0.00 0.00 0.00 0.00 0.00 0.02 0.03 0.02 0.01
0.41 0.34 0.36 0.42 0.46 0.45 0.52 0.48 0.48 0.57 0.81 0.89 1.02 0.96 0.78 0.66 0.57 0.47 0.38 0.27 0.20 0.16 0.14 0.12 0.07 0.04 0.01 0.00 0.01 0.01 0.00 0.00 0.00 0.00 0.00 0.00 0.00 0.00 0.00 0.02 0.05 0.03 0.03
0.62 0.53 0.45 0.45 0.51 0.50 0.61 0.61 0.47 0.45 0.52 0.62 0.64 0.74 0.77 0.70 0.57 0.40 0.29 0.25 0.17 0.14 0.08 0.05 0.04 0.03 0.00 0.00 0.00 0.00 0.00 0.00 0.00 0.00 0.00 0.00 0.00 0.00 0.00 0.01 0.02 0.03 0.03
1.00 0.89 0.78 0.76 0.65 0.64 0.67 0.66 0.70 0.55 0.48 0.46 0.44 0.40 0.37 0.43 0.39 0.31 0.24 0.18 0.14 0.13 0.11 0.05 0.02 0.02 0.00 0.00 0.00 0.00 0.00 0.00 0.00 0.00 0.00 0.00 0.00 0.00 0.00 0.00 0.01 0.01 0.03
0.94 0.96 0.91 0.83 0.83 0.83 0.62 0.49 0.47 0.53 0.41 0.38 0.34 0.30 0.27 0.24 0.20 0.16 0.13 0.12 0.11 0.10 0.08 0.03 0.01 0.00 0.00 0.00 0.00 0.00 0.00 0.00 0.00 0.00 0.00 0.00 0.01 0.01 0.01 0.00 0.00 0.00 0.00
0.87 0.81 0.84 0.78 0.68 0.67 0.60 0.47 0.42 0.32 0.36 0.36 0.39 0.31 0.26 0.20 0.15 0.11 0.06 0.05 0.06 0.06 0.04 0.01 0.00 0.00 0.00 0.00 0.00 0.00 0.00 0.00 0.00 0.00 0.00 0.00 0.00 0.01 0.04 0.02 0.00 0.00 0.00

GFSMA_prec_precacc24_204.txt.gz
Total_Precipitation_Accumulation
0.00 0.00 0.01 0.01 0.00 0.00 0.00 0.00 0.00 0.00 0.00 0.00 0.00 0.00 0.00 0.00 0.00 0.00 0.00 0.00 0.01 0.02 0.02 0.02 0.03 0.03 0.03 0.03 0.02 0.01 0.01 0.01 0.01 0.01 0.01 0.00 0.00 0.00 0.00 0.00 0.01 0.01 0.01
0.01 0.00 0.01 0.01 0.00 0.00 0.00 0.00 0.00 0.00 0.00 0.00 0.00 0.00 0.00 0.00 0.00 0.00 0.00 0.00 0.01 0.02 0.02 0.02 0.03 0.05 0.05 0.03 0.02 0.02 0.01 0.02 0.03 0.02 0.02 0.01 0.01 0.01 0.01 0.01 0.01 0.01 0.01
0.01 0.00 0.00 0.00 0.00 0.00 0.00 0.00 0.00 0.00 0.00 0.00 0.00 0.00 0.00 0.00 0.00 0.00 0.00 0.00 0.00 0.01 0.02 0.02 0.03 0.04 0.05 0.05 0.04 0.04 0.03 0.03 0.03 0.03 0.02 0.03 0.02 0.02 0.02 0.02 0.01 0.01 0.01
0.01 0.01 0.00 0.00 0.00 0.00 0.00 0.00 0.00 0.00 0.00 0.00 0.00 0.00 0.00 0.00 0.00 0.00 0.00 0.00 0.00 0.00 0.01 0.02 0.02 0.04 0.04 0.05 0.06 0.06 0.06 0.05 0.05 0.05 0.04 0.04 0.03 0.02 0.02 0.02 0.02 0.02 0.01
0.07 0.04 0.03 0.02 0.02 0.01 0.01 0.00 0.00 0.00 0.00 0.00 0.00 0.00 0.00 0.00 0.00 0.00 0.00 0.00 0.00 0.00 0.00 0.00 0.01 0.02 0.03 0.04 0.06 0.08 0.08 0.07 0.07 0.06 0.05 0.04 0.03 0.02 0.02 0.02 0.02 0.02 0.02
0.16 0.16 0.12 0.10 0.09 0.08 0.07 0.07 0.07 0.06 0.04 0.02 0.01 0.00 0.00 0.00 0.00 0.00 0.00 0.00 0.00 0.00 0.00 0.00 0.00 0.00 0.02 0.03 0.04 0.07 0.09 0.09 0.08 0.07 0.06 0.06 0.04 0.04 0.04 0.03 0.03 0.03 0.03
0.23 0.20 0.19 0.11 0.08 0.07 0.08 0.11 0.11 0.11 0.08 0.06 0.06 0.03 0.01 0.00 0.00 0.00 0.00 0.00 0.00 0.00 0.00 0.00 0.00 0.00 0.00 0.01 0.03 0.05 0.07 0.08 0.08 0.08 0.07 0.07 0.05 0.05 0.05 0.05 0.04 0.05 0.05
0.23 0.22 0.23 0.22 0.20 0.16 0.14 0.13 0.14 0.13 0.11 0.08 0.12 0.14 0.12 0.08 0.05 0.02 0.00 0.00 0.00 0.00 0.00 0.00 0.00 0.00 0.00 0.00 0.00 0.03 0.05 0.06 0.07 0.07 0.07 0.06 0.05 0.05 0.05 0.05 0.06 0.07 0.07
0.22 0.28 0.30 0.29 0.31 0.30 0.21 0.15 0.15 0.18 0.23 0.20 0.16 0.28 0.33 0.24 0.14 0.09 0.06 0.01 0.00 0.00 0.00 0.00 0.00 0.00 0.00 0.00 0.00 0.00 0.02 0.02 0.04 0.06 0.06 0.05 0.04 0.04 0.05 0.06 0.07 0.07 0.07
0.13 0.15 0.20 0.21 0.24 0.26 0.21 0.21 0.18 0.13 0.17 0.27 0.24 0.22 0.24 0.29 0.27 0.22 0.17 0.13 0.05 0.01 0.01 0.01 0.00 0.01 0.01 0.01 0.00 0.00 0.00 0.01 0.02 0.03 0.03 0.03 0.04 0.04 0.04 0.05 0.06 0.06 0.06
0.12 0.15 0.17 0.20 0.29 0.32 0.27 0.28 0.26 0.25 0.25 0.29 0.29 0.22 0.21 0.31 0.34 0.25 0.22 0.19 0.18 0.12 0.08 0.05 0.01 0.00 0.00 0.00 0.00 0.00 0.00 0.00 0.00 0.01 0.02 0.03 0.03 0.03 0.04 0.05 0.05 0.06 0.07
0.10 0.11 0.14 0.17 0.23 0.26 0.26 0.33 0.36 0.39 0.40 0.40 0.36 0.29 0.36 0.38 0.37 0.34 0.38 0.37 0.36 0.38 0.36 0.27 0.15 0.08 0.01 0.00 0.00 0.00 0.00 0.00 0.00 0.00 0.01 0.02 0.02 0.02 0.03 0.04 0.05 0.06 0.06
0.10 0.11 0.16 0.18 0.24 0.22 0.20 0.21 0.27 0.29 0.34 0.43 0.46 0.37 0.33 0.31 0.26 0.35 0.41 0.45 0.47 0.53 0.53 0.47 0.31 0.21 0.12 0.07 0.01 0.00 0.00 0.00 0.00 0.00 0.00 0.01 0.02 0.02 0.02 0.03 0.05 0.05 0.07
0.12 0.12 0.15 0.15 0.18 0.20 0.22 0.29 0.28 0.26 0.26 0.28 0.31 0.28 0.27 0.27 0.31 0.38 0.37 0.40 0.49 0.53 0.42 0.35 0.29 0.20 0.16 0.11 0.02 0.00 0.00 0.00 0.00 0.00 0.00 0.01 0.01 0.01 0.01 0.02 0.03 0.03 0.04
0.11 0.12 0.15 0.21 0.22 0.25 0.27 0.30 0.30 0.25 0.26 0.26 0.30 0.31 0.27 0.20 0.23 0.31 0.33 0.32 0.31 0.45 0.44 0.32 0.25 0.22 0.21 0.17 0.08 0.02 0.01 0.01 0.01 0.01 0.01 0.01 0.02 0.01 0.01 0.01 0.02 0.02 0.03
0.38 0.34 0.29 0.26 0.24 0.27 0.31 0.31 0.31 0.28 0.32 0.36 0.32 0.33 0.32 0.27 0.24 0.27 0.32 0.33 0.31 0.34 0.41 0.33 0.26 0.24 0.29 0.30 0.20 0.09 0.03 0.03 0.02 0.01 0.01 0.01 0.01 0.01 0.01 0.01 0.01 0.01 0.02
0.57 0.54 0.56 0.55 0.47 0.37 0.37 0.36 0.38 0.41 0.35 0.31 0.30 0.28 0.29 0.26 0.30 0.27 0.26 0.26 0.24 0.30 0.43 0.42 0.26 0.24 0.35 0.39 0.30 0.15 0.08 0.05 0.03 0.02 0.01 0.01 0.01 0.01 0.01 0.00 0.01 0.01 0.01
0.72 0.70 0.73 0.76 0.74 0.70 0.62 0.53 0.55 0.56 0.46 0.42 0.37 0.28 0.28 0.32 0.35 0.34 0.37 0.37 0.33 0.30 0.31 0.43 0.37 0.30 0.39 0.49 0.37 0.19 0.10 0.03 0.02 0.01 0.01 0.01 0.00 0.01 0.01 0.00 0.00 0.00 0.01
1.24 1.09 0.93 0.94 0.93 1.01 1.05 1.04 0.94 0.87 0.69 0.57 0.54 0.53 0.48 0.42 0.46 0.55 0.49 0.42 0.42 0.44 0.47 0.44 0.37 0.41 0.56 0.52 0.47 0.35 0.16 0.06 0.03 0.02 0.01 0.00 0.00 0.00 0.01 0.01 0.00 0.00 0.00
0.92 1.02 1.02 0.94 0.91 1.01 0.99 1.09 1.16 1.19 1.17 0.98 0.82 0.63 0.61 0.64 0.56 0.46 0.54 0.58 0.42 0.33 0.37 0.39 0.37 0.45 0.56 0.66 0.46 0.28 0.23 0.15 0.05 0.03 0.02 0.01 0.00 0.00 0.01 0.01 0.00 0.00 0.00
0.41 0.48 0.63 0.74 0.75 0.78 0.73 0.76 0.88 1.01 1.05 1.15 1.13 1.03 0.94 0.85 0.82 0.69 0.58 0.55 0.59 0.57 0.47 0.49 0.53 0.58 0.61 0.67 0.62 0.39 0.18 0.13 0.08 0.03 0.02 0.01 0.00 0.00 0.00 0.01 0.01 0.00 0.00
0.39 0.33 0.36 0.45 0.50 0.47 0.60 0.55 0.61 0.74 0.99 1.09 1.23 1.18 1.16 1.23 1.09 0.92 0.80 0.65 0.49 0.49 0.48 0.39 0.43 0.48 0.51 0.41 0.32 0.24 0.22 0.21 0.17 0.08 0.02 0.02 0.01 0.00 0.00 0.01 0.02 0.01 0.00
0.60 0.53 0.47 0.48 0.54 0.52 0.68 0.66 0.55 0.54 0.62 0.77 0.87 1.00 1.14 1.14 1.06 0.91 0.85 0.74 0.57 0.44 0.36 0.43 0.40 0.31 0.34 0.41 0.35 0.32 0.22 0.10 0.06 0.06 0.04 0.04 0.02 0.00 0.00 0.00 0.01 0.01 0.01
0.95 0.87 0.78 0.77 0.66 0.67 0.72 0.72 0.78 0.63 0.59 0.69 0.71 0.60 0.61 0.76 0.76 0.76 0.78 0.83 0.70 0.53 0.49 0.48 0.42 0.36 0.24 0.22 0.16 0.14 0.13 0.11 0.07 0.08 0.04 0.03 0.01 0.00 0.00 0.00 0.00 0.00 0.00
0.81 0.86 0.86 0.81 0.83 0.86 0.68 0.56 0.57 0.68 0.57 0.60 0.57 0.48 0.52 0.51 0.51 0.49 0.53 0.67 0.64 0.55 0.50 0.46 0.41 0.36 0.31 0.20 0.17 0.20 0.23 0.11 0.07 0.05 0.01 0.01 0.01 0.01 0.01 0.00 0.00 0.00 0.00
0.74 0.64 0.69 0.71 0.69 0.73 0.67 0.55 0.53 0.46 0.53 0.53 0.59 0.53 0.57 0.47 0.43 0.42 0.40 0.39 0.44 0.47 0.44 0.45 0.39 0.34 0.33 0.22 0.12 0.05 0.04 0.02 0.01 0.02 0.00 0.00 0.00 0.00 0.04 0.02 0.00 0.00 0.00

GFSMA_prec_precacc24_207.txt.gz
Total_Precipitation_Accumulation
0.00 0.00 0.01 0.01 0.00 0.00 0.00 0.00 0.00 0.00 0.00 0.00 0.00 0.00 0.00 0.00 0.00 0.00 0.00 0.00 0.01 0.02 0.02 0.02 0.03 0.03 0.03 0.03 0.02 0.01 0.01 0.01 0.01 0.01 0.00 0.00 0.00 0.00 0.00 0.00 0.01 0.01 0.01
0.02 0.01 0.01 0.01 0.00 0.00 0.00 0.00 0.00 0.00 0.00 0.00 0.00 0.00 0.00 0.00 0.00 0.00 0.00 0.00 0.01 0.02 0.02 0.02 0.03 0.05 0.05 0.03 0.02 0.02 0.01 0.01 0.02 0.02 0.01 0.01 0.01 0.01 0.01 0.01 0.01 0.01 0.01
0.01 0.01 0.01 0.01 0.00 0.00 0.00 0.00 0.00 0.00 0.00 0.00 0.00 0.00 0.00 0.00 0.00 0.00 0.00 0.00 0.00 0.01 0.02 0.02 0.03 0.04 0.06 0.05 0.03 0.03 0.03 0.03 0.03 0.03 0.02 0.02 0.02 0.02 0.02 0.02 0.02 0.01 0.01
0.01 0.01 0.00 0.00 0.00 0.00 0.00 0.00 0.00 0.00 0.00 0.00 0.00 0.00 0.00 0.00 0.00 0.00 0.00 0.00 0.00 0.00 0.01 0.02 0.03 0.04 0.04 0.05 0.06 0.06 0.05 0.04 0.04 0.04 0.03 0.04 0.03 0.03 0.02 0.02 0.02 0.02 0.01
0.07 0.05 0.04 0.02 0.02 0.02 0.01 0.00 0.00 0.00 0.00 0.00 0.00 0.00 0.00 0.00 0.00 0.00 0.00 0.00 0.00 0.00 0.00 0.00 0.01 0.02 0.03 0.04 0.06 0.08 0.07 0.07 0.06 0.05 0.04 0.04 0.03 0.02 0.02 0.02 0.02 0.02 0.02
0.18 0.18 0.14 0.11 0.09 0.09 0.07 0.07 0.07 0.06 0.04 0.02 0.01 0.01 0.01 0.01 0.00 0.00 0.00 0.00 0.00 0.00 0.00 0.00 0.00 0.01 0.02 0.03 0.05 0.07 0.08 0.08 0.07 0.07 0.06 0.05 0.04 0.04 0.04 0.03 0.03 0.03 0.03
0.23 0.22 0.21 0.12 0.08 0.08 0.09 0.12 0.12 0.12 0.09 0.07 0.08 0.05 0.03 0.02 0.01 0.00 0.00 0.00 0.00 0.00 0.00 0.00 0.00 0.00 0.00 0.02 0.04 0.06 0.07 0.08 0.08 0.07 0.07 0.06 0.05 0.05 0.04 0.04 0.04 0.04 0.04
0.23 0.22 0.23 0.22 0.20 0.16 0.14 0.13 0.14 0.15 0.12 0.09 0.15 0.19 0.16 0.11 0.07 0.03 0.02 0.02 0.01 0.01 0.01 0.01 0.01 0.01 0.00 0.00 0.01 0.03 0.05 0.07 0.07 0.06 0.06 0.05 0.05 0.04 0.04 0.03 0.04 0.04 0.05
0.21 0.28 0.30 0.29 0.31 0.30 0.21 0.15 0.15 0.18 0.24 0.20 0.17 0.31 0.38 0.28 0.16 0.11 0.11 0.10 0.11 0.10 0.08 0.07 0.06 0.05 0.00 0.00 0.00 0.01 0.02 0.03 0.05 0.06 0.05 0.04 0.03 0.03 0.03 0.03 0.04 0.04 0.05
0.13 0.15 0.20 0.21 0.24 0.26 0.21 0.21 0.18 0.13 0.17 0.28 0.24 0.22 0.26 0.33 0.30 0.25 0.19 0.16 0.14 0.13 0.11 0.09 0.07 0.07 0.07 0.03 0.01 0.00 0.00 0.01 0.02 0.03 0.02 0.02 0.02 0.02 0.02 0.03 0.04 0.04 0.05
0.12 0.15 0.17 0.20 0.29 0.32 0.27 0.28 0.26 0.25 0.25 0.29 0.29 0.22 0.22 0.34 0.38 0.29 0.25 0.22 0.25 0.22 0.19 0.16 0.16 0.17 0.16 0.13 0.09 0.05 0.01 0.00 0.00 0.01 0.02 0.02 0.02 0.02 0.02 0.03 0.03 0.04 0.05
0.10 0.11 0.14 0.17 0.23 0.26 0.26 0.33 0.36 0.39 0.40 0.40 0.37 0.29 0.37 0.39 0.38 0.36 0.40 0.40 0.39 0.42 0.46 0.43 0.35 0.26 0.23 0.21 0.19 0.19 0.10 0.02 0.00 0.00 0.01 0.01 0.01 0.01 0.01 0.02 0.03 0.04 0.04
0.10 0.11 0.16 0.18 0.24 0.22 0.20 0.21 0.27 0.30 0.34 0.44 0.47 0.38 0.34 0.32 0.29 0.39 0.45 0.51 0.52 0.59 0.61 0.58 0.48 0.38 0.33 0.32 0.30 0.26 0.17 0.09 0.02 0.00 0.00 0.01 0.01 0.01 0.01 0.01 0.02 0.03 0.03
0.10 0.11 0.15 0.15 0.18 0.20 0.22 0.29 0.28 0.27 0.27 0.29 0.32 0.29 0.28 0.28 0.33 0.43 0.42 0.48 0.58 0.63 0.52 0.42 0.34 0.27 0.27 0.30 0.30 0.31 0.22 0.14 0.09 0.06 0.02 0.01 0.01 0.00 0.01 0.01 0.01 0.02 0.02
0.07 0.09 0.14 0.20 0.22 0.25 0.27 0.31 0.31 0.26 0.27 0.27 0.31 0.32 0.29 0.21 0.25 0.34 0.39 0.38 0.40 0.61 0.61 0.44 0.35 0.31 0.33 0.45 0.45 0.30 0.17 0.14 0.10 0.07 0.04 0.02 0.02 0.01 0.01 0.00 0.01 0.00 0.01
0.17 0.22 0.23 0.24 0.24 0.27 0.32 0.32 0.32 0.28 0.33 0.36 0.33 0.34 0.33 0.29 0.25 0.29 0.37 0.38 0.38 0.44 0.52 0.40 0.32 0.32 0.44 0.58 0.58 0.42 0.26 0.23 0.16 0.06 0.02 0.01 0.01 0.00 0.00 0.00 0.00 0.00 0.00
0.28 0.37 0.47 0.51 0.47 0.38 0.38 0.38 0.39 0.42 0.36 0.31 0.30 0.29 0.30 0.28 0.31 0.29 0.30 0.31 0.30 0.36 0.50 0.47 0.29 0.27 0.47 0.69 0.74 0.46 0.29 0.29 0.23 0.13 0.10 0.04 0.01 0.01 0.00 0.00 0.00 0.00 0.00
0.56 0.63 0.70 0.74 0.73 0.70 0.62 0.53 0.56 0.56 0.46 0.43 0.38 0.29 0.29 0.33 0.37 0.36 0.42 0.43 0.39 0.36 0.38 0.50 0.40 0.32 0.44 0.59 0.62 0.45 0.36 0.23 0.18 0.15 0.10 0.06 0.03 0.02 0.00 0.00 0.00 0.00 0.00
1.03 0.99 0.90 0.93 0.93 1.01 1.06 1.04 0.95 0.88 0.70 0.57 0.54 0.54 0.48 0.43 0.48 0.58 0.53 0.49 0.54 0.58 0.58 0.51 0.41 0.42 0.58 0.61 0.70 0.65 0.49 0.29 0.19 0.18 0.14 0.08 0.04 0.02 0.00 0.00 0.00 0.00 0.00
0.70 0.94 1.00 0.94 0.92 1.01 0.99 1.10 1.16 1.19 1.18 0.98 0.82 0.64 0.61 0.65 0.57 0.47 0.57 0.63 0.50 0.47 0.55 0.63 0.47 0.46 0.58 0.74 0.63 0.62 0.60 0.44 0.31 0.20 0.14 0.10 0.05 0.02 0.01 0.00 0.00 0.00 0.00
0.37 0.47 0.63 0.74 0.75 0.78 0.74 0.77 0.88 1.01 1.05 1.16 1.13 1.03 0.96 0.91 0.88 0.75 0.63 0.60 0.66 0.70 0.62 0.56 0.62 0.62 0.64 0.78 0.78 0.56 0.34 0.38 0.37 0.20 0.14 0.09 0.04 0.02 0.01 0.00 0.00 0.00 0.00
0.37 0.33 0.36 0.45 0.50 0.47 0.61 0.56 0.61 0.74 0.99 1.10 1.25 1.20 1.19 1.31 1.14 1.01 0.88 0.70 0.59 0.63 0.61 0.46 0.46 0.50 0.52 0.44 0.38 0.35 0.38 0.39 0.43 0.30 0.16 0.16 0.06 0.04 0.02 0.01 0.01 0.00 0.00
0.58 0.53 0.47 0.47 0.54 0.52 0.69 0.67 0.56 0.54 0.63 0.78 0.90 1.02 1.15 1.17 1.13 1.03 1.03 0.88 0.65 0.61 0.50 0.45 0.41 0.33 0.37 0.45 0.42 0.44 0.31 0.17 0.12 0.16 0.15 0.19 0.10 0.06 0.03 0.01 0.00 0.00 0.00
0.95 0.87 0.78 0.76 0.65 0.66 0.72 0.72 0.79 0.63 0.60 0.70 0.73 0.62 0.63 0.80 0.80 0.82 0.89 0.99 0.83 0.64 0.64 0.53 0.49 0.47 0.37 0.37 0.31 0.25 0.26 0.30 0.25 0.25 0.17 0.18 0.12 0.06 0.01 0.00 0.00 0.00 0.00
0.81 0.87 0.86 0.81 0.82 0.84 0.68 0.56 0.57 0.68 0.57 0.60 0.58 0.51 0.56 0.57 0.55 0.54 0.57 0.71 0.76 0.73 0.70 0.62 0.58 0.60 0.59 0.53 0.56 0.62 0.63 0.37 0.30 0.31 0.16 0.10 0.11 0.05 0.03 0.02 0.01 0.00 0.00
0.74 0.64 0.68 0.70 0.66 0.69 0.65 0.55 0.54 0.46 0.54 0.53 0.61 0.57 0.64 0.56 0.47 0.46 0.44 0.45 0.51 0.62 0.66 0.74 0.67 0.65 0.65 0.53 0.33 0.14 0.13 0.09 0.10 0.16 0.10 0.07 0.09 0.04 0.06 0.03 0.01 0.01 0.00